SCP
0 0 0 0 0 0 0 0 0 0 0 0 0 0 0 0 0 0 0 0 0 0 0 1 1 2 2 2 2 1 1 1 1 1 1 1 1 1 1 0 0 0 0 0
0 0 0 0 0 0 0 0 0 0 0 0 0 0 0 0 0 0 0 0 0 1 1 1 1 2 2 2 2 1 1 2 2 2 2 2 1 1 1 1 1 0 0 0
0 0 0 0 0 0 0 0 0 0 0 0 0 0 0 0 0 0 0 0 0 1 1 1 2 2 2 2 2 2 2 2 2 2 2 2 2 1 1 1 1 1 1 1
0 0 0 0 0 0 0 0 0 0 0 0 0 0 0 0 0 0 0 0 0 1 1 1 2 2 2 2 2 2 2 2 2 2 2 2 2 2 2 2 2 1 1 1
0 0 0 0 0 0 0 0 0 0 0 0 0 0 0 0 0 0 0 0 0 0 1 1 1 1 1 1 1 1 1 2 2 2 2 2 2 2 2 2 2 2 1 1
0 0 0 0 0 0 0 0 0 0 0 0 0 0 0 0 0 0 0 0 0 0 0 0 0 0 0 1 1 1 1 1 1 1 1 2 1 1 2 2 2 1 1 1
0 0 0 0 0 0 0 0 0 0 0 0 0 0 0 0 0 0 0 0 0 0 0 0 0 0 0 0 0 0 1 1 1 1 1 1 1 1 1 1 1 1 1 1
0 0 0 0 0 0 0 0 0 0 0 0 0 0 0 0 0 0 0 0 0 0 0 0 0 0 0 0 0 0 0 0 0 0 0 0 0 0 1 1 1 1 1 1
0 0 0 0 0 0 0 0 0 0 0 0 0 0 0 0 0 0 0 0 0 0 0 0 0 0 0 0 0 0 0 0 0 0 0 0 0 0 0 1 1 1 1 1
0 0 0 0 0 0 0 0 0 0 0 0 0 0 0 0 0 0 0 0 0 0 0 0 0 0 0 0 0 0 0 0 0 0 0 0 0 0 0 0 0 0 1 1
0 0 0 0 0 0 0 0 0 0 0 0 0 0 0 0 0 0 0 0 0 0 0 0 0 0 0 0 0 0 0 0 0 0 0 0 0 0 0 0 0 0 0 0
0 0 0 0 0 0 0 0 0 0 0 0 0 0 0 0 0 0 0 0 0 0 0 0 0 0 0 0 0 0 0 0 0 0 0 0 0 0 0 0 0 0 0 0
0 0 0 0 0 0 0 0 0 0 0 0 0 0 0 0 0 0 0 0 0 0 0 0 0 0 0 0 0 0 0 0 0 0 0 0 0 0 0 0 0 0 0 0
0 0 0 0 0 0 0 0 0 0 0 0 0 0 0 0 0 0 0 0 0 0 0 0 0 0 0 0 0 0 0 0 0 0 0 0 0 0 0 0 0 0 0 0
0 0 0 0 0 0 0 0 0 0 0 0 0 0 0 0 0 0 0 0 0 0 0 0 0 0 0 0 0 0 0 0 0 0 0 0 0 0 0 0 0 0 0 0
0 0 0 0 0 0 0 0 0 0 0 0 0 0 0 0 0 0 0 0 0 0 0 0 0 0 0 0 0 0 0 0 0 0 0 0 0 0 0 0 0 0 0 0
0 0 0 0 0 0 0 0 0 0 0 0 0 0 0 0 0 0 0 0 0 0 0 0 0 0 0 0 0 0 0 0 0 0 0 0 0 0 0 0 0 0 0 0
0 0 0 0 0 0 0 0 0 0 0 0 0 0 0 0 0 0 0 0 0 0 0 0 0 0 0 0 0 0 0 0 0 0 0 0 0 0 0 0 0 0 0 0
0 0 0 0 0 0 0 0 0 0 0 0 0 0 0 0 0 0 0 0 0 0 0 0 0 0 0 0 0 0 0 0 0 0 0 0 0 0 0 0 0 0 0 0
0 0 0 0 0 0 0 0 0 0 0 0 0 0 0 0 0 0 0 0 0 0 0 0 0 0 0 0 0 0 0 0 0 0 0 0 0 0 0 0 0 0 0 0
0 0 0 0 0 0 0 0 0 0 0 0 0 0 0 0 0 0 0 0 0 0 0 0 0 0 0 0 0 0 0 0 0 0 0 0 0 0 0 0 0 0 0 0
0 0 0 0 0 0 0 0 0 0 0 0 0 0 0 0 0 0 0 0 0 0 0 0 0 0 0 0 0 0 0 0 0 0 0 0 0 0 0 0 0 0 0 0
0 0 0 0 0 0 0 0 0 0 0 0 0 0 0 0 0 0 0 0 0 0 0 0 0 0 0 0 0 0 0 0 0 0 0 0 0 0 0 0 0 0 0 0
0 0 0 0 0 0 0 0 0 0 0 0 0 0 0 0 0 0 0 0 0 0 0 0 0 0 0 0 0 0 0 0 0 0 0 0 0 0 0 0 0 0 0 0
0 0 0 0 0 0 0 0 0 0 0 0 0 0 0 0 0 0 0 0 0 0 0 0 0 0 0 0 0 0 0 0 0 0 0 0 0 0 0 0 0 0 0 0
0 0 0 0 0 0 0 0 0 0 0 0 0 0 0 0 0 0 0 0 0 0 0 0 0 0 0 0 0 0 0 0 0 0 0 0 0 0 0 0 0 0 0 0
0 0 0 0 0 0 0 0 0 0 0 0 0 0 0 0 0 0 0 0 0 0 0 0 0 0 0 0 0 0 0 0 0 0 0 0 0 0 0 0 0 0 0 0
Wind_Speed
10 11 11 13 13 13 13 12 10 12 15 16 16 18 18 18 17 14 13 12 10 9 7 6 8 10 10 9 9 9 9 9 8 8 7 8 7 8 8 8 8 8 7 7
13 11 13 15 12 10 7 5 7 11 12 15 20 19 17 16 14 12 12 11 9 8 6 4 6 8 8 7 7 7 7 8 7 7 8 8 9 9 9 9 10 9 8 8
12 12 13 4 8 8 8 12 10 11 15 21 20 16 11 9 10 10 9 8 6 5 4 2 4 6 7 6 5 5 6 7 7 8 8 9 10 10 10 10 10 10 10 10
8 8 4 6 7 8 7 12 14 14 17 19 20 10 10 11 10 8 7 5 6 7 8 8 8 8 8 6 5 3 4 5 6 7 8 9 9 10 10 10 10 10 10 10
5 5 6 7 12 18 6 9 19 20 21 23 24 2 13 17 13 10 8 8 9 9 10 11 11 10 10 9 7 5 2 1 2 3 5 7 9 10 9 9 9 10 9 10
5 5 1 11 25 26 8 4 21 22 22 23 22 13 13 16 11 9 9 8 8 9 11 11 11 10 10 9 8 7 6 6 5 5 3 2 5 6 6 7 8 8 8 9
7 4 4 15 26 17 4 10 19 20 20 20 16 13 15 12 6 7 7 7 6 8 9 9 9 9 10 9 8 7 6 7 7 7 6 5 2 1 3 4 6 6 7 7
7 6 6 15 17 11 10 16 19 19 19 19 18 16 13 7 3 4 5 5 5 7 8 7 7 8 9 9 7 6 6 7 7 7 7 5 4 4 4 4 5 5 5 5
5 4 4 5 7 10 13 19 20 21 20 19 19 17 13 6 1 2 3 4 5 6 7 7 6 7 8 7 5 5 6 6 6 6 6 5 4 5 5 4 3 3 3 3
6 3 8 7 5 10 13 18 22 21 19 18 18 17 13 6 3 3 3 3 3 4 4 5 5 4 5 4 4 5 5 6 5 6 6 6 4 3 4 3 3 2 1 0
8 10 11 8 13 14 16 20 21 20 18 17 17 16 13 6 4 4 4 4 3 3 2 2 2 3 3 3 3 4 4 4 5 5 6 5 5 5 4 4 4 3 2 2
7 11 12 16 15 15 17 19 20 20 19 17 15 15 13 7 4 5 5 5 4 4 4 3 2 3 2 1 2 3 3 4 3 3 4 4 3 4 8 7 6 6 6 5
8 12 14 16 14 15 16 19 20 17 16 15 14 12 11 7 4 5 5 6 6 6 6 5 4 3 1 2 2 1 2 2 1 1 2 2 1 1 2 3 5 7 8 7
10 11 11 13 16 15 16 17 17 16 13 11 11 11 10 7 4 6 6 6 6 6 6 6 5 3 1 3 3 2 1 2 0 0 1 1 1 0 1 1 2 3 5 7
9 11 12 14 15 14 15 15 15 14 13 12 11 11 10 9 6 7 7 6 6 7 7 7 5 3 3 5 4 3 1 1 1 1 1 0 0 0 1 3 2 2 3 4
12 12 12 14 15 16 16 16 16 15 14 14 13 12 12 11 9 7 8 9 9 9 8 7 6 4 5 6 5 3 2 3 1 1 1 1 1 2 3 3 3 3 3 3
12 13 15 16 16 17 17 16 15 15 14 14 13 13 13 12 8 6 8 10 10 8 7 6 5 5 7 7 6 4 3 4 3 1 1 1 1 3 3 3 3 3 4 4
9 11 12 13 14 15 16 15 15 15 14 14 13 12 12 11 9 6 7 9 9 9 8 7 5 7 8 8 6 4 4 4 3 3 2 2 1 3 3 3 3 4 3 3
9 10 12 13 13 13 14 14 15 15 14 13 12 12 11 10 9 6 5 8 10 10 8 8 8 9 9 8 6 5 5 4 4 3 3 3 2 3 3 3 3 4 3 3
9 10 12 13 12 12 13 13 14 14 14 13 13 12 10 9 7 5 5 7 7 5 6 9 11 10 10 10 8 6 5 5 4 4 4 4 3 3 4 4 3 3 3 4
11 11 11 12 13 13 12 12 13 14 14 13 12 12 12 10 8 6 5 5 5 6 8 11 10 9 9 9 9 6 6 5 5 4 5 4 4 4 4 4 4 3 3 3
11 11 11 11 12 13 12 11 11 14 14 13 12 12 12 10 8 6 6 5 2 8 8 8 9 10 11 11 8 7 6 6 5 4 4 4 4 4 4 4 4 4 3 3
10 11 11 11 12 13 13 11 12 12 14 14 13 13 12 11 8 6 5 2 4 10 8 8 11 16 15 10 8 8 7 7 6 5 4 4 4 4 4 4 4 4 3 3
10 10 11 11 11 12 12 13 12 11 13 13 11 12 11 9 7 4 4 2 4 9 7 11 18 19 14 8 8 8 7 6 5 5 4 4 4 4 5 5 4 4 4 4
10 10 11 11 10 9 11 12 12 12 12 10 12 11 9 7 6 6 5 2 5 9 7 14 21 19 12 8 8 8 7 6 6 5 5 5 4 4 5 5 4 4 4 4
10 9 9 10 9 8 8 8 8 8 9 10 10 10 9 8 8 6 4 3 7 8 8 11 14 13 9 9 8 8 7 8 7 5 5 5 5 5 5 5 5 4 4 4
10 9 7 8 8 7 8 8 8 9 9 10 12 12 11 9 7 5 4 3 6 8 8 10 11 10 9 9 9 8 8 7 7 6 6 5 5 5 5 6 4 4 4 4
Wind_Direction
309 305 299 294 285 277 274 272 284 309 311 314 321 313 299 291 289 290 288 287 291 292 285 246 215 203 198 195 191 187 192 200 208 216 213 214 208 209 211 210 212 211 206 201
300 308 311 299 298 284 265 289 316 323 323 338 322 308 294 283 282 284 285 289 299 304 303 259 204 189 180 180 182 192 207 218 217 222 219 220 218 215 214 210 215 215 218 214
299 315 304 306 24 19 75 58 17 353 336 329 326 327 327 310 298 299 305 314 325 343 18 66 141 149 150 153 159 192 222 231 224 221 221 223 221 217 214 213 212 213 219 219
286 301 280 82 50 14 96 55 22 1 350 344 331 335 38 10 345 338 353 15 48 66 71 76 86 96 102 114 131 173 229 239 231 224 220 221 219 216 213 210 205 207 211 216
278 273 265 90 18 345 306 58 16 359 354 352 339 360 49 26 15 23 36 54 65 73 79 77 79 89 95 93 89 82 54 327 281 249 230 216 216 218 211 204 202 201 202 205
292 283 327 17 341 322 273 53 7 355 352 353 353 5 5 1 10 36 46 53 67 76 77 75 74 78 80 77 70 59 41 29 23 21 359 287 236 221 207 206 209 205 205 205
332 303 51 10 336 338 48 358 340 345 346 348 351 338 323 333 5 35 45 47 62 75 75 74 77 78 74 66 55 41 31 33 33 33 34 30 30 131 181 194 198 200 200 203
1 347 358 354 345 354 338 323 328 336 338 338 337 336 337 338 8 38 52 57 69 83 83 78 78 80 75 65 52 43 39 37 36 35 40 50 65 88 119 139 147 159 177 185
335 318 291 275 277 300 320 317 320 324 326 329 332 338 335 320 310 61 63 76 82 94 94 88 76 68 69 63 44 40 43 39 34 42 51 56 81 103 109 118 131 148 173 187
328 350 333 303 285 309 312 308 311 313 316 323 328 332 331 301 223 169 131 105 111 132 120 98 78 59 50 49 27 27 38 32 28 33 48 61 72 93 99 94 101 111 116 179
316 332 329 325 330 326 317 313 312 312 312 319 324 329 330 299 230 190 163 150 165 198 174 122 80 33 16 359 346 11 34 38 39 47 49 54 70 52 35 57 32 11 17 359
314 325 315 310 319 320 316 315 313 309 307 312 319 326 330 308 238 198 179 169 181 201 222 229 256 309 325 282 282 330 22 36 36 46 64 66 73 86 55 50 53 48 38 15
294 301 296 297 312 318 314 316 315 307 298 304 314 325 331 317 245 205 186 185 195 206 225 241 256 293 343 177 218 328 29 42 42 27 59 93 120 148 135 110 78 60 52 42
307 310 304 312 318 318 318 321 320 313 306 307 314 323 329 320 261 218 202 191 197 214 230 240 253 278 192 180 197 195 94 86 16 40 314 288 260 282 37 85 119 95 66 48
327 325 315 313 316 322 324 327 326 324 324 321 321 322 325 319 288 236 205 185 193 215 228 234 242 241 187 191 202 189 173 139 92 47 346 316 237 43 75 89 101 111 114 84
324 327 334 333 333 334 334 335 331 327 323 317 315 317 320 314 297 252 209 191 199 216 225 230 236 220 187 191 195 189 148 84 6 344 114 119 125 100 94 105 111 107 100 100
326 333 340 339 335 334 332 330 327 324 318 313 310 311 310 305 294 248 218 206 210 223 229 229 222 188 183 191 194 187 164 149 178 219 92 94 107 115 117 117 107 92 80 63
320 320 325 330 328 326 326 327 329 329 322 314 307 301 298 297 298 271 226 210 208 217 222 218 196 177 179 187 191 183 175 173 180 171 142 131 125 132 133 128 121 113 105 107
311 315 320 328 327 323 324 326 328 332 330 323 312 301 295 291 293 280 231 211 210 215 211 195 175 178 174 174 176 179 175 171 172 165 152 147 171 133 128 121 121 121 124 127
309 315 317 323 327 326 327 327 326 333 336 330 319 308 297 289 292 284 236 226 224 217 178 162 169 174 168 167 182 176 168 168 172 167 163 163 154 132 122 123 133 132 123 109
308 313 316 320 323 324 327 328 327 332 338 336 327 317 307 298 292 282 251 242 221 190 164 156 166 164 164 163 186 175 166 160 161 156 151 154 151 144 135 129 125 111 97 93
307 310 312 315 318 322 326 327 328 328 334 338 333 327 319 308 298 283 251 247 205 166 166 167 167 156 155 163 176 169 166 157 152 150 150 154 156 153 140 131 123 114 107 99
303 306 307 311 315 316 320 325 330 328 330 337 338 333 323 311 299 286 284 225 191 176 177 168 151 147 155 171 170 169 167 163 158 160 163 157 145 138 130 124 116 114 110 101
300 302 305 306 308 311 320 327 326 323 324 331 335 331 321 312 302 285 283 250 190 173 179 152 149 155 166 172 169 170 167 163 163 165 161 151 135 129 122 119 119 117 111 102
294 296 300 305 307 310 316 320 321 321 321 327 332 334 326 314 303 312 310 273 166 172 166 158 160 162 168 167 172 172 166 161 159 160 161 153 144 138 132 132 132 125 115 104
289 291 294 295 297 298 303 310 311 311 315 321 331 336 331 322 309 299 284 242 174 174 165 159 164 170 172 167 169 167 159 151 151 157 159 154 149 143 137 136 134 127 116 111
283 282 281 285 290 297 304 306 307 310 314 322 329 327 324 319 311 305 281 217 172 173 170 166 167 170 164 162 165 166 161 161 164 164 164 162 157 153 150 150 143 130 121 116